Regional Weather Roundup
Issued by NWS

Home | Current Version | Previous Version | Text Only | Print | Product List | Glossary Off
Versions: 1 2 3 4 5 6 7 8 9 10 11 12 13 14 15 16 17 18 19 20 21 22 23 24 25 26 27 28 29 30 31 32 33 34 35 36 37 38 39 40 41 42 43 44 45 46 47 48 49 50

000
ASUS43 KMKX 271300
RWRWI

WISCONSIN REGIONAL WEATHER ROUNDUP
NATIONAL WEATHER SERVICE MILWAUKEE/SULLIVAN WI
800 AM CDT THU AUG 27 2015

NOTE: "FAIR" INDICATES FEW OR NO CLOUDS BELOW 12,000 FEET WITH NO
SIGNIFICANT WEATHER AND/OR OBSTRUCTIONS TO VISIBILITY.

WIZ001-002-006>008-014>016-023>028-271400-
NORTHWEST WISCONSIN

CITY           SKY/WX    TMP DP  RH WIND       PRES   REMARKS
SUPERIOR ARPT  MOSUNNY   46  46 100 CALM      30.12S
ASHLAND        SUNNY     49  47  93 CALM      30.15S
HAYWARD        SUNNY     49  47  93 CALM      30.15R
SIREN          SUNNY     53  52  95 CALM      30.13R
CUMBERLAND     SUNNY     50  48  93 CALM      30.16R
RICE LAKE      SUNNY     49  48  96 CALM      30.17R
CHETEK         SUNNY     49  49  99 CALM      30.16R
LADYSMITH      SUNNY     48  47  95 CALM      30.17R
EAU CLAIRE     NOT AVBL
MENOMONIE      MOSUNNY   53  53  99 CALM      30.15R
NEW RICHMOND   MOSUNNY   55  53  94 CALM      30.13F
OSCEOLA        MOSUNNY   55  55 100 CALM      30.15F
$$

WIZ003>005-009-010-017-018-271400-
NORTH CENTRAL WISCONSIN

CITY           SKY/WX    TMP DP  RH WIND       PRES   REMARKS
MANITOWISH WTR FOG       39  39 100 CALM      30.17F VSB 1/2
ARBOR VITAE    SUNNY     43  42  95 CALM      30.17F
WOODRUFF       SUNNY     43  42  95 CALM      30.17F
RHINELANDER    MOSUNNY   47  45  93 CALM      30.19S
EAGLE RIVER    FOG       44  44 100 CALM      30.18S VSB<1/4
LAND O LAKES   FOG       40  40 100 CALM      30.20R VSB 1/4
PHILLIPS       SUNNY     43  43  99 CALM      30.16F
TOMAHAWK       SUNNY     42  41  97 CALM      30.18S
MEDFORD        SUNNY     48  48 100 E3        30.15F
MERRILL        SUNNY     43  43 100 CALM      30.19S
$$

WIZ029-030-035-036-043>047-271400-
CENTRAL WISCONSIN

CITY           SKY/WX    TMP DP  RH WIND       PRES   REMARKS
WAUSAU         SUNNY     50  49  96 E5        30.16F
MOSINEE        SUNNY     52  52 100 E3        30.18F
MARSHFIELD     SUNNY     55  50  83 CALM      30.16F
STEVENS POINT  SUNNY     47  46  97 CALM      30.18F
WAUPACA        SUNNY     53  52  96 CALM      30.19S
WAUTOMA        NOT AVBL
WISC RAPIDS    SUNNY     53  51  93 CALM      30.18F
CAMP DOUGLAS   NOT AVBL
$$

WIZ011>013-019>022-031-037>040-048>050-271400-
NORTHEAST WISCONSIN

CITY           SKY/WX    TMP DP  RH WIND       PRES   REMARKS
ANTIGO         SUNNY     48  48  99 CALM      30.19S
SHAWANO        FOG       55  53  95 NE3       30.19F VSB 1/4
OCONTO         CLOUDY    49  49 100 CALM      30.19S VSB 1/4
STURGEON BAY   SUNNY     54  50  87 CALM      30.22R
GREEN BAY      FOG       53  53 100 CALM      30.20R VSB<1/4
MANITOWOC      NOT AVBL
APPLETON       PTSUNNY   55  55 100 SW6       30.18S
CLINTONVILLE   FOG       52  52 100 CALM      30.19F VSB<1/4
OSHKOSH        SUNNY     59  54  83 W5        30.18F
$$

WIZ032>034-041-042-053>061-271400-
SOUTHWEST WISCONSIN

CITY           SKY/WX    TMP DP  RH WIND       PRES   REMARKS
LA CROSSE      CLOUDY    54  53  97 E5        30.16R FOG
SPARTA         SUNNY     47  46  97 CALM      30.17R
VIROQUA        SUNNY     54  54 100 SE7       30.17R
BOSCOBEL       FOG       53  52  96 CALM      30.19R VSB 1/4
PRAIRIE DU CHI CLOUDY    55  53  93 CALM      30.17R
PLATTEVILLE    SUNNY     56  55  96 SE7       30.18S
$$

WIZ056-057-062-063-064-067-068-271400-
SOUTH CENTRAL WISCONSIN

CITY           SKY/WX    TMP DP  RH WIND       PRES   REMARKS
REEDSBURG      SUNNY     48  48  99 CALM      30.17F
BARABOO/DELLS  SUNNY     55  53  92 CALM      30.18S
LONE ROCK      NOT AVBL
MINERAL POINT  SUNNY     55  54  94 SE5       30.19R
MADISON        MOSUNNY   57  53  86 CALM      30.18F
MIDDLETON      SUNNY     58  54  86 CALM      30.19F
WATERTOWN      SUNNY     51  51 100 CALM      30.20F
MONROE         SUNNY     55  52  88 SW7       30.19S
JANESVILLE     SUNNY     55  54  94 CALM      30.19F FOG
$$

WIZ051-052-058>065-066-070>072-271400-
SOUTHEAST WISCONSIN

CITY           SKY/WX    TMP DP  RH WIND       PRES   REMARKS
MILWAUKEE      PTSUNNY   60  52  74 W6        30.23R
WAUKESHA       NOT AVBL
MILWAUKEE/TIMM PTSUNNY   57  52  82 CALM      30.23R
RACINE         CLOUDY    56  52  86 W6        30.24R
BURLINGTON     SUNNY     50  50  99 CALM      30.22S
KENOSHA        SUNNY     56  54  93 W3        30.23R
FOND DU LAC    SUNNY     56  54  93 S6        30.20F
SHEBOYGAN      MOSUNNY   60  56  86 W7        30.20R
WEST BEND      PTSUNNY   57  52  82 W7        30.21S
JUNEAU         SUNNY     51  50  97 E5        30.21F FOG
$$

LSZ147-162-271400-
LAKE SUPERIOR

STATION/POSITION TIME  TEMP    WIND        PRES    WAVE
                       AIR SEA DIR/SP/G            HT/PER
                 (UTC) (F)     (DEG/KT/KT) (MB)    (FT/S)
W MID LAKE BUOY  1150   55 54  170/  4/  6 1020.8R   0
DEVILS ISLAND    1200   55     220/  9/  9 1021.3R
PORT WING        1240   50     120/  3/  4 1020.3F
SAXON HARBOR     1240   48        CALM     1020.7S
$$

LMZ867-665-643>646-271400-
LAKE MICHIGAN

STATION/POSITION TIME  TEMP    WIND        PRES    WAVE
                       AIR SEA DIR/SP/G            HT/PER
                 (UTC) (F)     (DEG/KT/KT) (MB)    (FT/S)
CHAMBERS ISLAND  1200   53        CALM     1022.0R
S GREEN BAY BUOY 1200   54     340/  8/ 10 1023.3R
N MID LAKE BUOY  1150   58 64  130/  2/  4 1022.0R   1
NORTHPORT PIER   1204   60     100/  5/  9 1022.0R
SISTER BAY       1219   60        CALM       N/A
ALGOMA LAKESHORE 1214             CALM       N/A
KEWAUNEE LAKESHO 1200   49     300/  2/  3 1021.2R
SHEBOYGAN LAKESH 1200   53     180/  6/  6 1023.0R
PORT WASHINGTON  1200   52     200/  2/  3 1023.4R
ATWATER BUOY     1200   56 48  220/  4/  6 1024.3R
MILWAUKEE LAKESH 1200   59     270/  5/  6   N/A
S MID LAKE BUOY  1150   63 67  300/  4/  4 1022.8R   1
KENOSHA   LAKESH 1200   56      CALM  /  2 1023.0R
$$

TC  - TEMPERATURE IN CELSIUS
VSB - VISIBILITY IN STATUTE MILES
WCI - WIND CHILL INDEX
HX  - HEAT INDEX




USA.gov is the U.S. government's official web portal to all federal, state and local government web resources and services.